When you browse on this site, cookies collect data to enhance your experience and personalize the content and advertising you see.
Visit our Privacy Policy to learn more. By continuing to use the site, you agree to this use of cookies and data.
  • Em Portugal
  • Lista de países
  • Para 7 dias
  • Temperatura da água
  • Mapa do tempo
  • Widgets de tempo
  • user-avatar
    Iniciar Sessão

    Previsão horária em Romodanovo

    Hoje, 21 Agosto, Quarta-feira

    Tempo Temperatura Precipitação Vento Pressão Humidade
    00:00 +18°C° 0 mm 1 m/s 756 mmHg 91%
    01:00 +18°C° 0 mm 1 m/s 756 mmHg 92%
    02:00 +18°C° 0 mm 1 m/s 756 mmHg 92%
    03:00 +17°C° 0 mm 2 m/s 756 mmHg 93%
    04:00 +18°C° 0 mm 1 m/s 757 mmHg 93%
    05:00 +18°C° 0 mm 1 m/s 757 mmHg 93%
    06:00 +18°C° 0 mm 1 m/s 757 mmHg 93%
    07:00 +20°C° 0 mm 1 m/s 757 mmHg 87%
    08:00 +21°C° 0 mm 1 m/s 757 mmHg 81%
    09:00 +23°C° 0 mm 2 m/s 757 mmHg 75%
    10:00 +24°C° 0 mm 2 m/s 757 mmHg 71%
    11:00 +25°C° 0 mm 2 m/s 757 mmHg 68%
    12:00 +26°C° 0 mm 2 m/s 757 mmHg 64%
    13:00 +26°C° 0 mm 2 m/s 757 mmHg 62%
    14:00 +27°C° 0 mm 2 m/s 757 mmHg 61%
    15:00 +27°C° 0 mm 2 m/s 757 mmHg 60%
    16:00 +26°C° 0 mm 2 m/s 757 mmHg 65%
    17:00 +25°C° 0 mm 2 m/s 756 mmHg 70%
    18:00 +25°C° 0 mm 2 m/s 756 mmHg 75%
    19:00 +23°C° 0 mm 2 m/s 756 mmHg 78%
    20:00 +22°C° 0 mm 1 m/s 756 mmHg 82%
    21:00 +21°C° 0 mm 1 m/s 756 mmHg 85%
    22:00 +20°C° 0 mm 1 m/s 756 mmHg 86%
    23:00 +18°C° 0 mm 0 m/s 756 mmHg 87%

    Amanhã, 22 Agosto, Quinta-feira

    Tempo Temperatura Precipitação Vento Pressão Humidade
    00:00 +18°C° 0 mm 0 m/s 756 mmHg 88%
    01:00 +17°C° 0 mm 0 m/s 756 mmHg 89%
    02:00 +17°C° 0 mm 0 m/s 757 mmHg 89%
    03:00 +17°C° 0 mm 0 m/s 757 mmHg 89%
    04:00 +17°C° 0 mm 0 m/s 756 mmHg 89%
    05:00 +17°C° 0 mm 0 m/s 756 mmHg 89%
    06:00 +18°C° 0 mm 0 m/s 756 mmHg 89%
    07:00 +19°C° 0 mm 0 m/s 756 mmHg 83%
    08:00 +23°C° 0 mm 1 m/s 756 mmHg 78%
    09:00 +24°C° 0 mm 1 m/s 756 mmHg 72%
    10:00 +25°C° 0 mm 1 m/s 756 mmHg 68%
    11:00 +26°C° 0 mm 1 m/s 756 mmHg 64%
    12:00 +27°C° 0 mm 1 m/s 756 mmHg 60%
    13:00 +27°C° 0 mm 1 m/s 755 mmHg 58%
    14:00 +28°C° 0 mm 1 m/s 755 mmHg 57%
    15:00 +28°C° 0 mm 1 m/s 755 mmHg 55%
    16:00 +27°C° 0 mm 1 m/s 755 mmHg 60%
    17:00 +27°C° 0 mm 1 m/s 754 mmHg 64%
    18:00 +26°C° 0 mm 1 m/s 754 mmHg 68%
    19:00 +25°C° 0 mm 1 m/s 754 mmHg 71%
    20:00 +23°C° 0 mm 1 m/s 754 mmHg 74%
    21:00 +22°C° 0 mm 1 m/s 754 mmHg 77%
    22:00 +22°C° 0 mm 1 m/s 755 mmHg 78%
    23:00 +21°C° 0 mm 1 m/s 755 mmHg 80%

    Depois de amanhã, 23 Agosto, Sexta-feira

    Tempo Temperatura Precipitação Vento Pressão Humidade
    00:00 +21°C° 0 mm 1 m/s 755 mmHg 81%
    01:00 +20°C° 0 mm 1 m/s 755 mmHg 84%
    02:00 +19°C° 0 mm 2 m/s 755 mmHg 87%
    03:00 +19°C° 0 mm 2 m/s 755 mmHg 90%
    04:00 +19°C° 0 mm 3 m/s 756 mmHg 90%
    05:00 +18°C° 0 mm 3 m/s 756 mmHg 91%
    06:00 +18°C° 0 mm 4 m/s 756 mmHg 91%
    07:00 +18°C° 0 mm 4 m/s 756 mmHg 88%
    08:00 +18°C° 0 mm 4 m/s 757 mmHg 85%
    09:00 +18°C° 0 mm 4 m/s 757 mmHg 82%
    10:00 +19°C° 0 mm 4 m/s 757 mmHg 76%
    11:00 +21°C° 0 mm 4 m/s 757 mmHg 70%
    12:00 +22°C° 0 mm 4 m/s 757 mmHg 65%
    13:00 +22°C° 0 mm 4 m/s 757 mmHg 63%
    14:00 +22°C° 0 mm 4 m/s 757 mmHg 61%
    15:00 +23°C° 0 mm 4 m/s 757 mmHg 59%
    16:00 +22°C° 0 mm 4 m/s 757 mmHg 63%
    17:00 +21°C° 0 mm 3 m/s 757 mmHg 67%
    18:00 +20°C° 0 mm 3 m/s 757 mmHg 71%
    19:00 +19°C° 0 mm 2 m/s 757 mmHg 73%
    20:00 +18°C° 0 mm 2 m/s 757 mmHg 75%
    21:00 +16°C° 0 mm 2 m/s 758 mmHg 78%
    22:00 +16°C° 0 mm 2 m/s 758 mmHg 78%
    23:00 +16°C° 0 mm 2 m/s 758 mmHg 79%

    24 Agosto, Sábado

    Tempo Temperatura Precipitação Vento Pressão Humidade
    00:00 +15°C° 0 mm 2 m/s 758 mmHg 79%
    01:00 +15°C° 0 mm 1 m/s 758 mmHg 80%
    02:00 +14°C° 0 mm 1 m/s 758 mmHg 82%
    03:00 +14°C° 0 mm 1 m/s 758 mmHg 83%
    04:00 +14°C° 0 mm 1 m/s 758 mmHg 84%
    05:00 +14°C° 0 mm 1 m/s 758 mmHg 85%
    06:00 +14°C° 0 mm 1 m/s 758 mmHg 86%
    07:00 +16°C° 0 mm 1 m/s 758 mmHg 80%
    08:00 +18°C° 0 mm 2 m/s 758 mmHg 75%
    09:00 +19°C° 0 mm 2 m/s 759 mmHg 69%
    10:00 +20°C° 0 mm 2 m/s 758 mmHg 65%
    11:00 +21°C° 0 mm 2 m/s 758 mmHg 61%
    12:00 +23°C° 0 mm 2 m/s 758 mmHg 56%
    13:00 +24°C° 0 mm 2 m/s 758 mmHg 55%
    14:00 +24°C° 0 mm 3 m/s 758 mmHg 53%
    15:00 +24°C° 0 mm 3 m/s 758 mmHg 52%
    16:00 +23°C° 0 mm 2 m/s 758 mmHg 57%
    17:00 +21°C° 0 mm 2 m/s 757 mmHg 61%
    18:00 +22°C° 0 mm 1 m/s 757 mmHg 66%
    19:00 +20°C° 0 mm 1 m/s 757 mmHg 69%
    20:00 +17°C° 0 mm 0 m/s 757 mmHg 72%
    21:00 +15°C° 0 mm 0 m/s 757 mmHg 75%
    22:00 +15°C° 0 mm 0 m/s 757 mmHg 76%
    23:00 +16°C° 0 mm 1 m/s 757 mmHg 77%

    25 Agosto, Domingo

    Tempo Temperatura Precipitação Vento Pressão Humidade
    00:00 +15°C° 0 mm 1 m/s 757 mmHg 77%
    01:00 +15°C° 0 mm 1 m/s 757 mmHg 79%
    02:00 +15°C° 0 mm 2 m/s 756 mmHg 81%
    03:00 +14°C° 0 mm 2 m/s 756 mmHg 82%
    04:00 +14°C° 0 mm 2 m/s 756 mmHg 83%
    05:00 +14°C° 0 mm 2 m/s 756 mmHg 83%
    06:00 +14°C° 0 mm 2 m/s 756 mmHg 84%
    07:00 +16°C° 0 mm 3 m/s 755 mmHg 79%
    08:00 +18°C° 0 mm 3 m/s 755 mmHg 74%
    09:00 +20°C° 0 mm 4 m/s 755 mmHg 69%
    10:00 +21°C° 0 mm 4 m/s 755 mmHg 66%
    11:00 +22°C° 0 mm 4 m/s 754 mmHg 62%
    12:00 +23°C° 0 mm 5 m/s 754 mmHg 59%
    13:00 +23°C° 0 mm 5 m/s 754 mmHg 59%
    14:00 +23°C° 0 mm 5 m/s 753 mmHg 58%
    15:00 +25°C° 0 mm 5 m/s 753 mmHg 58%
    16:00 +22°C° 0.4 mm 5 m/s 753 mmHg 65%
    17:00 +21°C° 0.4 mm 5 m/s 753 mmHg 72%
    18:00 +19°C° 0.4 mm 5 m/s 753 mmHg 79%
    19:00 +18°C° 0.3 mm 4 m/s 753 mmHg 84%
    20:00 +17°C° 0.3 mm 3 m/s 753 mmHg 89%
    21:00 +16°C° 0.3 mm 2 m/s 753 mmHg 93%
    22:00 +16°C° 0.2 mm 3 m/s 754 mmHg 92%
    23:00 +14°C° 0.2 mm 3 m/s 754 mmHg 91%

    26 Agosto, Segunda-feira

    Tempo Temperatura Precipitação Vento Pressão Humidade
    00:00 +13°C° 0.2 mm 4 m/s 754 mmHg 90%
    01:00 +13°C° 0 mm 3 m/s 755 mmHg 92%
    02:00 +12°C° 0 mm 3 m/s 755 mmHg 93%
    03:00 +11°C° 0 mm 3 m/s 755 mmHg 95%
    04:00 +11°C° 0 mm 4 m/s 756 mmHg 95%
    05:00 +11°C° 0 mm 4 m/s 756 mmHg 95%
    06:00 +11°C° 0 mm 4 m/s 756 mmHg 95%
    07:00 +12°C° 0 mm 4 m/s 757 mmHg 90%
    08:00 +12°C° 0 mm 4 m/s 757 mmHg 86%
    09:00 +13°C° 0 mm 4 m/s 758 mmHg 81%
    10:00 +13°C° 0 mm 4 m/s 758 mmHg 77%
    11:00 +14°C° 0 mm 4 m/s 759 mmHg 74%
    12:00 +14°C° 0 mm 4 m/s 759 mmHg 71%
    13:00 +15°C° 0 mm 4 m/s 759 mmHg 68%
    14:00 +17°C° 0 mm 4 m/s 759 mmHg 66%
    15:00 +17°C° 0 mm 4 m/s 759 mmHg 63%
    16:00 +17°C° 0 mm 4 m/s 759 mmHg 67%
    17:00 +16°C° 0 mm 3 m/s 759 mmHg 70%
    18:00 +16°C° 0 mm 2 m/s 759 mmHg 74%
    19:00 +14°C° 0 mm 2 m/s 760 mmHg 77%
    20:00 +13°C° 0 mm 2 m/s 760 mmHg 79%
    21:00 +12°C° 0 mm 2 m/s 760 mmHg 81%
    22:00 +10°C° 0 mm 2 m/s 760 mmHg 82%
    23:00 +10°C° 0 mm 2 m/s 760 mmHg 82%
    Mostrar mais